YUZGU 8 (53306 NORAD) Tracking and Keplerian Element Data

This shows tracking and keplerian element data for the satellite.

Feedback or suggestion? Click here.




ElementValue
Catalog53306
NameYUZGU 8
Epoch Orbit2757
Epoch Day14.02015326
Epoch Year2023
RAAN356.1631
Inclination51.6302
Eccentricity0.0006394
Argument of Perigee79.226
Mean Anonmoly28.7778
Mean Motion15.91185257
Decay Rate0.00638909
L11 53306U 98067TR 23014.02015326 .00638909 17232-3 19666-2 0 9999
L22 53306 51.6302 356.1631 0006394 79.2260 28.7778 15.91185257 27573



Live tracking and technical data element details for YUZGU 8 (NORAD 53306). YUZGU 8 can be tracked NOW for your location showing map with azimuth and elevation plus other details from your city location.







IsCatalogInMostPopularTable: catalog: 53306, numindb: 96
Update: records affected: 1



GetName: 53306 YUZGU 8

Hit Count: updated at: Thu, 23 Jan 2025 18:17:29 GMT